Cairo, Egypt

7:27 AM EET on February 24, 2017 (GMT +0200)
Cairo International

Weather History for HECA - November, 2012

Change the Weather History Date:

Saturday, November 24, 2012

  Actual Average Record
Temperature  
Mean Temperature 66 °F -  
Max Temperature 72 °F 68 °F 78 °F (1997)
Min Temperature 60 °F 51 °F 35 °F (1998)
Cooling Degree Days 1    
Growing Degree Days 16 (Base 50)    
Moisture  
Dew Point 54 °F    
Average Humidity 66    
Maximum Humidity 88    
Minimum Humidity 43    
Precipitation  
Precipitation 0.00 in 0.01 in - ()
Sea Level Pressure  
Sea Level Pressure 30.03 in    
Wind  
Wind Speed 3 mph ()    
Max Wind Speed 9 mph    
Max Gust Speed -    
Visibility 3.2 miles    
Events      
Averages and records for this station are not official NWS values.
T = Trace of Precipitation, MM = Missing Value Source: Averaged Metar Reports

Daily Weather History Graph

Daily Weather History Graph

Search for Another Location

Airport or City:

Trip Planner

Search our weather history database for the weather conditions in past years. The results will help you decide how hot, cold, wet, or windy it might be!

Date:

Astronomy

Nov. 24, 2012 Rise Set
Actual Time 6:27 AM EET 4:54 PM EET
Civil Twilight 6:01 AM EET 5:20 PM EET
Nautical Twilight 5:32 AM EET 5:49 PM EET
Astronomical Twilight 5:03 AM EET 6:18 PM EET
Moon 2:17 PM EET 2:38 AM EET
Length of Visible Light 11h 18m
Length of Day
10h 27m
Waxing Gibbous, 85% of the Moon is Illuminated
Nov 24
Waxing Gibbous
Nov 28
Full
Dec 6
Last Quarter
Dec 13
New
Dec 20
First Quarter

Hourly Weather History & Observations

Time (EET) Temp. Dew Point Humidity Pressure Visibility Wind Dir Wind Speed Gust Speed Precip Events Conditions
12:00 AM 66.2 °F 55.4 °F 68% 30.06 in 2.5 mi North 5.8 mph - N/A   Mist
12:30 AM 64.4 °F 55.4 °F 73% 30.04 in 2.5 mi Calm Calm - N/A   Mist
1:00 AM 62.6 °F 55.4 °F 77% 30.04 in 1.9 mi NNW 2.3 mph - N/A   Mist
1:30 AM 62.6 °F 55.4 °F 77% 30.06 in 1.9 mi NNW 2.3 mph - N/A   Mist
2:00 AM 63 °F 58 °F 77% 30.05 in 2 mi Calm Calm - -   Mist
2:00 AM 62.6 °F 57.2 °F 82% 30.06 in 1.9 mi Calm Calm - N/A   Mist
2:30 AM 60.8 °F 57.2 °F 88% 30.06 in 1.9 mi Calm Calm - N/A   Mist
3:00 AM 60.8 °F 53.6 °F 77% 30.04 in 1.9 mi SSW 2.3 mph - N/A   Mist
3:30 AM 60.8 °F 55.4 °F 82% 30.04 in 1.9 mi SSW 2.3 mph - N/A   Mist
4:00 AM 60.8 °F 55.4 °F 82% 30.04 in 1.2 mi SSW 3.5 mph - N/A   Mist
4:30 AM 60.8 °F 55.4 °F 82% 30.04 in 1.2 mi SSW 4.6 mph - N/A   Mist
5:00 AM 59.0 °F 53.6 °F 82% 30.04 in 1.2 mi SSW 3.5 mph - N/A   Mist
5:30 AM 59.0 °F 53.6 °F 82% 30.04 in 1.2 mi South 2.3 mph - N/A   Mist
6:00 AM 59.0 °F 55.4 °F 88% 30.04 in 1.2 mi SSW 3.5 mph - N/A   Mist
6:30 AM 60.8 °F 55.4 °F 82% 30.06 in 1.2 mi SSW 3.5 mph - N/A   Mist
7:00 AM 59.0 °F 55.4 °F 88% 30.06 in 1.2 mi SSW 3.5 mph - N/A   Mist
7:30 AM 60.8 °F 55.4 °F 82% 30.06 in 1.2 mi SSW 3.5 mph - N/A   Mist
8:00 AM 61 °F 54 °F 73% 30.07 in 1 mi North 1.2 mph - -   Mist
8:00 AM 60.8 °F 55.4 °F 82% 30.06 in 0.9 mi North 1.2 mph - N/A   Mist
8:30 AM 64.4 °F 57.2 °F 77% 30.06 in 0.9 mi SW 2.3 mph - N/A   Mist
9:00 AM 64.4 °F 57.2 °F 77% 30.06 in 0.7 mi NE 2.3 mph - N/A   Scattered Clouds
9:30 AM 66.2 °F 57.2 °F 73% 30.06 in 1.2 mi NNE 2.3 mph - N/A   Scattered Clouds
10:00 AM 69.8 °F 57.2 °F 64% 30.06 in 2.5 mi WNW 3.5 mph - N/A   Haze
10:30 AM 68.0 °F 57.2 °F 68% 30.06 in 2.5 mi WNW 3.5 mph - N/A   Haze
11:00 AM 69.8 °F 57.2 °F 64% 30.04 in 6.2 mi West 2.3 mph - N/A   Mostly Cloudy
11:30 AM 69.8 °F 57.2 °F 64% 30.04 in 6.2 mi West 1.2 mph - N/A   Mostly Cloudy
12:00 PM 69.8 °F 57.2 °F 64% 30.04 in 6.2 mi West 6.9 mph - N/A   Mostly Cloudy
12:30 PM 71.6 °F 53.6 °F 53% 30.04 in 6.2 mi NW 5.8 mph - N/A   Mostly Cloudy
1:00 PM 71.6 °F 53.6 °F 53% 30.01 in 6.2 mi NW 5.8 mph - N/A   Mostly Cloudy
1:30 PM 71.6 °F 53.6 °F 53% 30.01 in 6.2 mi NW 5.8 mph - N/A   Mostly Cloudy
2:00 PM 72 °F 55 °F 45% 30.00 in 6 mi North 2.3 mph - -   Scattered Clouds
2:00 PM 71.6 °F 55.4 °F 57% 30.01 in 6.2 mi North 2.3 mph - N/A   Scattered Clouds
2:30 PM 71.6 °F 55.4 °F 57% 30.01 in 6.2 mi North 2.3 mph - N/A   Scattered Clouds
3:00 PM 73.4 °F 50.0 °F 44% 29.98 in 6.2 mi WNW 6.9 mph - N/A   Scattered Clouds
3:30 PM 71.6 °F 48.2 °F 43% 29.98 in 6.2 mi WNW 8.1 mph - N/A   Scattered Clouds
4:00 PM 71.6 °F 50.0 °F 46% 29.98 in 6.2 mi WNW 8.1 mph - N/A   Scattered Clouds
4:30 PM 71.6 °F 50.0 °F 46% 29.98 in 6.2 mi NW 8.1 mph - N/A   Scattered Clouds
5:00 PM 69.8 °F 50.0 °F 49% 30.01 in 6.2 mi NNW 5.8 mph - N/A   Scattered Clouds
5:30 PM 69.8 °F 50.0 °F 49% 30.01 in 6.2 mi NNW 5.8 mph - N/A   Scattered Clouds
6:00 PM 69.8 °F 50.0 °F 49% 30.01 in - NNW 5.8 mph - N/A   Clear
6:30 PM 69.8 °F 50.0 °F 49% 30.01 in - NNW 5.8 mph - N/A   Clear
7:00 PM 69.8 °F 53.6 °F 56% 30.01 in - NNW 6.9 mph - N/A   Clear
7:30 PM 68.0 °F 53.6 °F 60% 30.04 in - North 6.9 mph - N/A   Clear
8:00 PM 68 °F 54 °F 50% 30.04 in 4 mi NNW 9.2 mph - -   Mostly Cloudy
8:00 PM 68.0 °F 53.6 °F 60% 30.04 in 3.7 mi NNW 9.2 mph - N/A   Unknown
8:30 PM 68.0 °F 53.6 °F 60% 30.04 in 2.5 mi NNW 6.9 mph - N/A   Haze
9:00 PM 68.0 °F 53.6 °F 60% 30.04 in 2.5 mi NNW 5.8 mph - N/A   Haze
9:30 PM 68.0 °F 53.6 °F 60% 30.04 in 2.5 mi North 5.8 mph - N/A   Haze
10:00 PM 66.2 °F 53.6 °F 64% 30.04 in 2.5 mi North 5.8 mph - N/A   Haze
10:30 PM 66.2 °F 53.6 °F 64% 30.04 in 2.5 mi North 6.9 mph - N/A   Haze
11:00 PM 66.2 °F 55.4 °F 68% 30.01 in 2.5 mi North 5.8 mph - N/A   Haze
11:30 PM 64.4 °F 53.6 °F 68% 30.01 in 2.5 mi NNE 3.5 mph - N/A   Haze